Погода в Ейске

Погода в Ейске : погода сейчас, прогноз погоды и архив. Всё, что Вы хотите узнать о погоде в Ейске!

Хотите узнать прогноз погоды в Ейске? Тогда Вам сюда: Погода в Ейске

Поиск расширенной информации на нашем сайте:

Другие новости

Новости СМИ2

Главная страница сайта

Новости сайта

03.07.2017

Напоминаем, что на нашем специализированном сайте Метеоцентр.Азия вы можете получить высокодетализированные автоматические прогнозы погоды по пунктам России, СНГ и мира в авиационном формате (включающие направление и скорость ветра, видимость, явления погоды, количество и форму облачности, нижнюю и верхнюю границу облачности).


Погода в Ейске - сегодня

Время (UTC), дата Ветер
(°,м/с) 
Видим.   Явления Облачность Т
(°С)
Тd
(°С)
f(%) Тe
(°С)
Pmin
(гПа)
dP
(гПа)
Po
(мм)
O2
(г/м3)
Тmin Tmax R s Состояние
почвы
12 20.10.17 300 (СЗ) 4000 м  дымка  10/10 300 м 
[Sc]
+13.4 +12.1 92 +18  1019  -0.6  762  290           
15 20.10.17 330 (СЗ) 4000 м  дымка  10/10 300 м 
[Sc]
+13.3 +11.6 89 +18  1019.1  0.1  762  291    +13.8       
18 20.10.17 130 (ЮВ) 4000 м  дымка  10/8 300 м средняя 
[Sc|Ac trans]
+13.1 +11.2 88 +16  1019.2  0.1  762  291           
21 20.10.17 220 (ЮЗ) 10 км    10/5 300 м средняя 
[Sc|Ac trans]
+13 +11 88 +16  1018.9  -0.3  762  291           
00 21.10.17 200 (Ю) 4000 м  дымка  10/10 300 м 
[Sc]
+12.5 +11.1 91 +15  1018.2  -0.7  761  291           
03 21.10.17 270 (З) 4000 м  дымка  10/10 300 м 
[Sc]
+12.2 +10.8 91 +15  1017.7  -0.5  761  292  +12.2         
06 21.10.17 290 (З) 4000 м  дымка  10/10 300 м 
[Sc]
+12.6 +11.6 94 +17  1017.7  761  291  +12.1         
09 21.10.17 290 (З) 4000 м  дымка  10/10 300 м 
[Sc]
+12.4 +11.3 93 +15  1017.4  -0.3  761  291           
12 21.10.17 320 (СЗ) 10 км    10/10 300 м 
[Sc]
+12.7 +10.6 87 +15  1015.9  -1.5  760  291           
15 21.10.17 270 (З) 10 км    10/10 300 м 
[Sc]
+12.7 +10.3 85 +14  1015.4  -0.5  759  291    +12.9       
18 21.10.17 220 (ЮЗ) 4000 м  дымка  8/8 300 м 
[Sc]
+11.1 +9.7 91 +13  1014.8  -0.6  759  292           
21 21.10.17 210 (ЮЗ) 4000 м  дымка  10/10 300 м 
[Sc diur, vesp]
+12.1 +11.1 94 +14  1013.5  -1.3  758  290           
00 22.10.17 280 (З) 4000 м  дымка  10/10 300 м 
[Sc diur, vesp]
+12.1 +11.4 95 +15  1012.4  -1.1  757  290           
03 22.10.17 тихо ()   4000 м  дымка  10/10 300 м 
[Sc diur, vesp]
+11.2 +10.5 95 +13  1011.3  -1  756  291  +11.1         
06 22.10.17 170 (Ю) 1000 м  в посл. час ливневой дождь  10/10 300 м кучево-дожд. 
[Cb calv]
+11.5 +11 97 +13  1011.1  -0.2  756  290  +9.9         
09 22.10.17 290 (З) 4000 м  дымка  10/10 300 м 
[Sc diur, vesp]
+13.8 +11.8 88 +17  1010.5  -0.6  756  288           
12 22.10.17 360 (С) 2000 м  дымка  10/10 300 м кучево-дожд. 
[Cb calv]
+11.5 +10.7 95 +12  1010.5  756  290           
15 22.10.17 050 (СВ) 10 км  {ливн. осадки}  10/10 300 м 
[Sc diur, vesp]
+11 +9.6 91 +10  1012.2  1.7  757  291    +14  0.7     
18 22.10.17 060 (СВ) 6-10{10}  10 км  {ливн. осадки}  10/10 300 м 
[Sc diur, vesp]
+9.1 +6.2 82 +7  1015.1  2.9  759  295           
21 22.10.17 060 (СВ) 5{12}  10 км    10/10 300 м 
[Sc diur, vesp]
+8.1 +5 81 +7  1017.1  1.9  761  297           
00 23.10.17 060 (СВ) 4{10}  10 км    10/10 300 м 
[Sc diur, vesp]
+7.7 +4.7 81 +6  1018.9  1.8  762  298           
03 23.10.17 080 (В) 10 км    10/10 300 м 
[Sc diur, vesp]
+7.2 +3.6 78 +6  1019.4  0.2  762  299  -7.2        сухая 
06 23.10.17 100 (В) 10 км    10/10 300 м 
[Sc diur, vesp]
+6.5 +4 84 +5  1021.3  1.8  764  300           
09 23.10.17 100 (В) 10 км    9/9 600 м 
[Cu med, cong]
+8.3 +2.6 67 +7  1021.2  764  298           
12 23.10.17 100 (В) 6-10{10}  10 км    8/8 600 м 
[Cu med, cong]
+9.1 +1.4 59 +7  1019.5  -1.7  762  297           
Время (UTC), дата Ветер
(°,м/с) 
Видим.   Явления Облачность Т
(°С)
Тd
(°С)
f(%) Тe
(°С)
Pmin
(гПа)
dP
(гПа)
Po
(мм)
O2
(г/м3)
Тmin Tmax R s Состояние
почвы

Для получения пояснительной информации подведите курсор к названию столбца.

ПОГОДА в Ейске - архив

Всё, что Вы хотите узнать о погоде в Ейске - удобно и подробно!

Выберите нужную дату (начиная с 1 января 2015* года) и нажмите кнопку "Найти".
Будут отображены архивные сводки погоды по пункту Ейск, начиная с указанной даты.


Отображать данные в формате CSV (для использования в таблицах Excel)


Внимание! Наш архив погоды предназначен исключительно для личного некоммерческого использования в познавательных целях. Если Вам необходимы официальные справки о состоянии погоды (для производственных, юридических, коммерческих и т.п. целей), обращайтесь в органы Росгидромета.

*Примечание: данная дата относится к архиву по метеостанциям СССР (Россия, СНГ, Балтия).
Архив по метеостанциям Зарубежной Европы и Азии (кроме Китая) хранится 10 дней, по другим регионам земного шара (Китай, Африка, Америка, Австралия, Океания) - 1 день.

Ейск - район местоположения метеостанции


Название, широта, долгота, высота метеостанции:
Ейск 46.8°ш. 38.3°д. 3 м над ур. моря [Российская Федерация]

Дополнительная информация

В oтличие oт бoльшинства пoгoдных сайтoв мы публикуем пoдрoбную метеoинфoрмацию в детальнoм прoфессиoнальнoм фoрмате.

Характеристики температуры и влажнoсти вoздуха измеряются на высoте 2 м в тени вдали oт зданий и деревьев.
Скoрoсть ветра измеряется на высoте 10 м (на урoвне рoста челoвека скoрoсть ветра ниже в 1.5-2 раза). Если метеoстанция нахoдится в гoрoде или в лесу, тo скoрoсть ветра занижена на 2-4 м/с пo сравнению с oткрытым местoм. Скoрoсть ветра над акватoриями крупных рек и oзёр, а также на вершинах хoлмoв на 2-5 м/с выше, чем в oбычных услoвиях.
Атмoсфернoе давление в разных тoчках местнoсти мoжет значительнo oтличаться oт давления на метеoстанции, в зависимoсти oт услoвий рельефа (при пoдъёме на 10 м давление пoнижается примернo на 1 мм рт.ст.).